Fairbanks, AK

7:23 PM AKDT on August 24, 2019 (GMT -0800)
Fairbanks International

Weather History for PAFA - December, 1974

Change the Weather History Date:

Wednesday, December 4, 1974

  Actual Average Record
Temperature  
Mean Temperature -18 °F -2 °F  
Max Temperature -11 °F 6 °F 52 °F (1934)
Min Temperature -25 °F -11 °F -53 °F (1935)
Degree Days  
Heating Degree Days 83 68  
Month to date heating degree days 269  
Since 1 July heating degree days 4400  
Cooling Degree Days 0 0  
Month to date cooling degree days 0  
Year to date cooling degree days 61  
Moisture  
Dew Point -31 °F    
Average Humidity 51    
Maximum Humidity 62    
Minimum Humidity 46    
Precipitation  
Precipitation 0.00 in 0.02 in 0.30 in (1927)
Month to date precipitation 0.08  
Year to date precipitation 10.25  
Snow  
Snow 0.00 in 0.40 in 4.80 in (1994)
Month to date snowfall 1.5  
Since 1 July snowfall 27.3  
Snow Depth -    
Sea Level Pressure  
Sea Level Pressure 29.65 in    
Wind  
Wind Speed 4 mph (NE)    
Max Wind Speed 7 mph    
Max Gust Speed -    
Visibility 9 miles    
Events Fog    
T = Trace of Precipitation, MM = Missing Value Source: NWS Daily Summary

Daily Weather History Graph

Daily Weather History Graph

Search for Another Location

Airport or City:

Astronomy

Dec. 04, 1974 Rise Set
Actual Time 9:27 AM AHST 1:55 PM AHST
Civil Twilight 8:10 AM AHST 3:12 PM AHST
Nautical Twilight 7:01 AM AHST 4:21 PM AHST
Astronomical Twilight 6:01 AM AHST 5:21 PM AHST
Moon 9:50 PM AHST (12/4) 11:50 AM AHST (12/4)
Length of Visible Light 7h 01m
Length of Day
4h 27m
Waning Gibbous, 67% of the Moon is Illuminated
Dec 4
Waning Gibbous
Dec 6
Last Quarter
Dec 13
New
Dec 21
First Quarter
Dec 28
Full

Hourly Weather History & Observations

Time (AHST) Temp. Windchill Dew Point Humidity Pressure Visibility Wind Dir Wind Speed Gust Speed Precip Events Conditions
12:00 AM -16.1 °F -28.6 °F -29.0 °F 52% 29.68 in 10.0 mi East 4.6 mph - N/A   Scattered Clouds
1:00 AM - - - N/A% 29.68 in 7.0 mi Calm Calm - N/A   Scattered Clouds
2:00 AM -20.0 °F -30.7 °F -32.1 °F 54% 29.68 in 5.0 mi NNE 3.5 mph - N/A Fog Fog
3:00 AM -20.9 °F - -32.1 °F 56% 29.68 in 6.0 mi Calm Calm - N/A Fog Fog
4:00 AM -20.0 °F -33.3 °F -33.0 °F 51% 29.68 in 7.0 mi North 4.6 mph - N/A   Scattered Clouds
5:00 AM -23.1 °F -34.2 °F -36.9 °F 49% 29.68 in 7.0 mi East 3.5 mph - N/A   Scattered Clouds
6:00 AM -22.0 °F -35.6 °F -36.9 °F 46% 29.68 in 7.0 mi NE 4.6 mph - N/A Fog Ice Crystals
7:00 AM -20.9 °F -31.7 °F -35.0 °F 48% 29.66 in 7.0 mi NNW 3.5 mph - N/A Fog Ice Crystals
8:00 AM -23.1 °F -34.2 °F -36.9 °F 49% 29.65 in 7.0 mi NNW 3.5 mph - N/A   Ice Crystals
9:00 AM -25.1 °F -39.1 °F -38.0 °F 51% 29.65 in 7.0 mi NNE 4.6 mph - N/A Fog Ice Crystals
10:00 AM -18.9 °F -35.8 °F -32.1 °F 51% 29.65 in 30.0 mi North 6.9 mph - N/A   Mostly Cloudy
11:00 AM -16.1 °F -32.3 °F -29.0 °F 52% 29.63 in 30.0 mi North 6.9 mph - N/A   Mostly Cloudy
12:00 PM -15.0 °F -29.3 °F -29.0 °F 49% 29.63 in 60.0 mi NE 5.8 mph - N/A   Scattered Clouds
1:00 PM -17.0 °F -31.7 °F -32.1 °F 46% 29.63 in 60.0 mi SSW 5.8 mph - N/A   Mostly Cloudy
2:00 PM -15.0 °F -29.3 °F -27.0 °F 55% 29.63 in 60.0 mi SSW 5.8 mph - N/A   Mostly Cloudy
3:00 PM -17.0 °F -27.2 °F -29.9 °F 52% 29.63 in 60.0 mi SSW 3.5 mph - N/A   Partly Cloudy
4:00 PM -18.0 °F -28.5 °F -31.0 °F 52% 29.63 in 15.0 mi SSE 3.5 mph - N/A   Partly Cloudy
5:00 PM -17.0 °F - -31.0 °F 49% 29.63 in 10.0 mi Calm Calm - N/A   Partly Cloudy
6:00 PM -16.1 °F - -29.9 °F 50% 29.63 in 10.0 mi Calm Calm - N/A   Partly Cloudy
7:00 PM -18.0 °F -28.5 °F -31.0 °F 52% 29.62 in 10.0 mi South 3.5 mph - N/A   Partly Cloudy
8:00 PM -15.0 °F -25.0 °F -29.0 °F 49% 29.62 in 10.0 mi WNW 3.5 mph - N/A   Partly Cloudy
9:00 PM -14.1 °F -23.9 °F -27.0 °F 52% 29.61 in 10.0 mi ESE 3.5 mph - N/A   Mostly Cloudy
10:00 PM -11.9 °F -21.5 °F -25.1 °F 52% 29.62 in 10.0 mi SSW 3.5 mph - N/A   Overcast
11:00 PM -11.0 °F -22.8 °F -20.9 °F 62% 29.62 in 10.0 mi NE 4.6 mph - N/A   Unknown